443  
SXUS52 KTAE 252016  
OSOTAE  
OSOTAE  
NORTH FLORIDA/SOUTH ALABAMA/SOUTHWEST GEORGIA WEATHER ROUNDUP  
NATIONAL WEATHER SERVICE TALLAHASSEE FLORIDA  
300 PM EST SAT JAN 25 2020  
 
NOTE: "FAIR" INDICATES FEW OR NO CLOUDS BELOW 12,000 FEET WITH NO  
SIGNIFICANT WEATHER AND/OR OBSTRUCTIONS TO VISIBILITY.  
 
!FLZ017-115-028-034-025-252100   
..NORTH FLORIDA
 
 
 
CITY SKY/WX TMP DP RH WIND PRES REMARKS  
TALL INTL ARPT FAIR 59 34 39 W12 30.09F  
FSU LOVE BLDG N/A 61 34 36 NW8G18 N/A  
APALACHICOLA FAIR 58 38 47 W8 30.10F  
PERRY FAIR 63 35 36 NW8 30.09F  
CROSS CITY FAIR 65 38 36 MISG 30.08F  
JACKSONVILLE FAIR 64 36 35 W13 30.03F  

 
 
!FLZ112-006-005-002-011-252100   
..FLORIDA PANHANDLE
 
 
 
CITY SKY/WX TMP DP RH WIND PRES REMARKS  
MARIANNA FAIR 58 36 43 W8 30.09  
BONIFAY FAIR 60 36 40 NW6 30.10F  
PANAMA CITY NW FAIR 59 36 42 W9 30.09F  
TYNDALL AFB FAIR 56 41 57 S10 30.11  
TYND DRONE APT FAIR 57 41 54 SW10 30.11F  
DE FUNIAK SPR FAIR 57 35 43 N9 30.10F  
EGLIN AFB FAIR 60 35 39 NW7 30.10  
DESTIN FAIR 56 41 57 SW6 30.11F  
HURLBURT SUNNY 59 34 39 NW12 30.10F  
CRESTVIEW FAIR 59 34 39 NW10 30.12F  
PENSACOLA FAIR 61 36 39 MISG 30.11F  

 
 
!ALZ063-066-252100   
..SOUTH ALABAMA
 
 
 
CITY SKY/WX TMP DP RH WIND PRES REMARKS  
DOTHAN FAIR 57 35 43 NW9G18 30.12F  
OZARK CAIRNS FAIR 57 35 42 W8 30.09  
FT RUCKER HELI FAIR 57 36 45 NW7 30.09F  
RUCKER HELI 3 FAIR 56 34 43 MISG 30.08F  
RUCKER HELI 2 FAIR 57 35 44 NW9 30.08F  
FLORALA APT FAIR 58 34 40 MISG 30.12F  
ANDALUSIA FAIR 61 35 37 W12 30.10  
TROY FAIR 55 34 45 NW9 30.10F  
EUFALA NOT AVBL  
MOBILE FAIR 60 31 33 NW8 30.14F  

 
 
!GAZ120>161-252100   
..SOUTHWEST AND SOUTH CENTRAL GEORGIA
 
 
 
CITY SKY/WX TMP DP RH WIND PRES REMARKS  
THOMASVILLE FAIR 55 34 44 NW9 30.09F  
BAINBRIDGE FAIR 56 36 46 W6G16 30.10F  
MOODY AFB FAIR 59 35 40 W9 30.05  
VALDOSTA FAIR 60 36 40 W12 30.07F  
MOULTRIE FAIR 55 36 47 NW8 30.09F  
BLAKELY FAIR 54 32 43 NW6 30.09F  
ALBANY FAIR 57 35 43 W12G18 30.09F  
TIFTON FAIR 56 35 46 W10 30.07  
FITZGERALD FAIR 57 36 44 W6 30.07F  
CORDELE FAIR 56 32 41 W13 30.07F  
AMERICUS FAIR 57 32 38 N6 30.08F  
HOMERVILLE FAIR 59 32 36 W9 30.05F  

 
 
!GMZ750-755-770-775-252100   
..COASTAL AND BUOY OBS
 
 
 
STATION/POSITION TIME TEMP WIND PRES VSBY WAVE  
AIR SEA DIR/SP/G HT/PER  
(UTC) (F) (DEG/KT/KT) (MB) (MI) (FT/S)  
KEATON BEACH 2000 53 260/ 13/ 14 1019.4F  
CEDAR KEY 2000 56 280/ 12/ 15 1019.4F  
C TOWER 2000 52 300/ 16/ 18 1020.0F  
APALACHICOLA BUO 2000 57 300/ 12/ 17 1021.0  
PANAMA CITY BUOY 2000 72 320/ 10/ 14 1020.4  
MOBILE BUOY 2000 56 69 350/ 6/ 8 1021.7  
ORANGE BCH AL BU 2000 54 62 280/ 12/ 16 1020.9  

 
 
 
CLICK HERE TO GO TO PREVIOUS BULLETINS.

The Nexlab FL Page
The Nexlab GA Page
The Nexlab AL Page Main Text Page